Tracking 30995 objects as of 5-Jul-2025
HD Live streaming from Space Station
objects crossing your sky now

INTERCOSMOS 25

Track INTERCOSMOS 25 now!
10-day predictions
INTERCOSMOS 25 is classified as:


NORAD ID: 21819
Int'l Code: 1991-086A
Perigee: 446.0 km
Apogee: 2,831.4 km
Inclination: 82.6 °
Period: 118.9 minutes
Semi major axis: 8009 km
RCS: 7.3989 m2 (large)
Launch date: December 18, 1991
Source: Commonwealth of Independent States (former USSR) (CIS)
Launch site: PLESETSK MISSILE AND SPACE COMPLEX (PKMTR)
Your satellite tracking list
Your tracking list is empty




NASA's NSSDC Master Catalog

Two Line Element Set (TLE):
1 21819U 91086A   25186.24212330  .00000730  00000-0  14618-3 0  9997
2 21819  82.6053  99.5382 1489057 290.0634  54.6514 12.11099260466722
Source of the keplerian elements: AFSPC